Home   Weather   Tangier   Past weeks

Flag for Morocco Past Weather in Tangier, Morocco — Yesterday and Last 2 Weeks

Now
50 °F

Partly sunny.


Feels Like: 49 °F
Forecast: 51 / 63 °F
Wind: 3 mph from Southeast

Location: Tanger Aerodrome

Current Time: Feb 23, 2017 at 7:16:50 am

Latest Report: Feb 23, 2017 at 6:30 am


Visibility: 3 mi

Pressure: 29.89 "Hg

Humidity: 94%

Dew Point: 48 °F

Location of TangierLocation

Past Weather in Tangier — Graph

°F

Tangier Temperature Yesterday

Maximum temperature yesterday: 66 °F (at 1:30 pm)
Minimum temperature yesterday: 57 °F (at 12:00 am)
Average temperature yesterday: 60 °F

High & Low Weather Summary for the Past Weeks

 TemperatureHumidityPressure
High68 °F (Feb 9, 1:30 pm)94% (Feb 8, 6:00 am)30.36 "Hg (Feb 8, 6:00 am)
Low37 °F (Feb 9, 7:00 am)30% (Feb 9, 12:30 pm)29.42 "Hg (Feb 12, 5:30 pm)
Average57 °F75%30.02 "Hg
* Reported Feb 8 6:00 am — Feb 23 6:00 am, Tangier, Weather by CustomWeather, © 2017

Note: Actual official high and low records may vary slightly from our data, if they occured in-between our weather recording intervals... More about our weather records

Advertising

Tangier Weather History for the Previous 24 Hours

Scroll right to see more
 ConditionsComfort  
Time TempWeatherWind HumidityBarometerVisibility
6:00 am
Thu, Feb 23
50 °FPassing clouds.5 mph94%29.89 "Hg3 mi
5:30 am50 °FPassing clouds.3 mph94%29.89 "Hg3 mi
5:00 am52 °FPassing clouds.6 mph94%29.89 "Hg3 mi
4:30 am50 °FPassing clouds.3 mph94%29.89 "Hg3 mi
3:30 am52 °FPassing clouds.2 mph88%29.89 "HgN/A
3:00 am54 °FPassing clouds.No wind88%29.92 "Hg3 mi
2:30 am55 °FPassing clouds.3 mph88%29.92 "Hg3 mi
2:00 am55 °FPassing clouds.2 mph88%29.92 "Hg3 mi
1:30 am55 °FPassing clouds.5 mph88%29.89 "Hg3 mi
1:00 am57 °FLight rain. Passing clouds.3 mph88%29.92 "Hg3 mi
12:30 am57 °FLight rain. Passing clouds.5 mph94%29.95 "Hg3 mi
12:00 am57 °FRain. Passing clouds.7 mph94%29.95 "Hg2 mi
11:30 pm
Wed, Feb 22
59 °FPassing clouds.5 mph82%29.95 "Hg4 mi
11:00 pm59 °FPassing clouds.5 mph82%29.95 "Hg4 mi
10:30 pm59 °FThunderstorms. Passing clouds.5 mph82%29.92 "Hg4 mi
10:00 pm59 °FThunderstorms. Passing clouds.8 mph82%29.92 "Hg4 mi
9:30 pm59 °FThunderstorms. Passing clouds.13 mph82%29.92 "Hg4 mi
9:00 pm59 °FLight rain. Passing clouds.7 mph82%29.89 "Hg4 mi
8:30 pm61 °FPassing clouds.17 mph72%29.92 "Hg5 mi
8:00 pm61 °FPassing clouds.14 mph72%29.92 "HgN/A
7:30 pm61 °FPassing clouds.3 mph72%29.92 "HgN/A
7:00 pm61 °FPassing clouds.18 mph72%29.89 "HgN/A
6:30 pm61 °FPassing clouds.18 mph72%29.89 "HgN/A
6:00 pm61 °FPassing clouds.22 mph72%29.86 "HgN/A
5:30 pm61 °FPassing clouds.21 mph72%29.86 "HgN/A
5:00 pm63 °FPassing clouds.20 mph68%29.86 "HgN/A
4:30 pm63 °FPassing clouds.18 mph68%29.86 "HgN/A
4:00 pm64 °FPassing clouds.21 mph64%29.89 "HgN/A
3:00 pm64 °FPassing clouds.28 mph64%29.89 "HgN/A
2:30 pm66 °FPassing clouds.24 mph64%29.89 "HgN/A
2:00 pm66 °FPassing clouds.24 mph64%29.92 "HgN/A
1:30 pm66 °FPassing clouds.24 mph64%29.92 "HgN/A
12:00 pm64 °FPassing clouds.25 mph64%29.95 "HgN/A
11:30 am64 °FPassing clouds.25 mph68%29.95 "HgN/A
11:00 am64 °FPassing clouds.22 mph68%29.95 "HgN/A
10:30 am64 °FPassing clouds.20 mph68%29.98 "HgN/A
10:00 am63 °FPassing clouds.24 mph68%29.98 "HgN/A
9:30 am61 °FPassing clouds.23 mph72%29.98 "HgN/A
9:00 am61 °FPassing clouds.20 mph72%29.98 "HgN/A
8:30 am59 °FPassing clouds.17 mph77%29.98 "HgN/A
8:00 am57 °FScattered clouds.15 mph82%29.98 "HgN/A
7:30 am57 °FScattered clouds.18 mph82%29.95 "HgN/A
7:00 am57 °FScattered clouds.18 mph82%29.95 "HgN/A
Weather by CustomWeather, © 2017

See weather overviewHow to use our weather pages